Regional Weather Roundup
Issued by NWS Green Bay, WI

Home | Current Version | Previous Version | Text Only | Print | Product List | Glossary On
Versions: 1 2 3 4 5 6 7 8 9 10 11 12 13 14 15 16 17 18 19 20 21 22 23 24 25 26 27 28 29 30 31 32 33 34 35 36 37 38 39 40 41 42 43 44 45 46 47 48 49 50
000
ASUS43 KGRB 221811
RWRGRB

NORTH-CENTRAL AND NORTHEAST WISCONSIN REGIONAL WEATHER ROUNDUP
NATIONAL WEATHER SERVICE GREEN BAY WI
1200 PM CST SUN JAN 22 2017

WIZ005-009-010>012-018-019-221900-
NORTH CENTRAL WISCONSIN

CITY           SKY/WX    TMP DP  RH WIND       PRES   REMARKS
IRONWOOD       FOG       36  35  96 NW5       29.64F VSB 1/2
MANITOWISH WTR CLOUDY    34  34 100 NW6       29.62S FOG
ARBOR VITAE    CLOUDY    37  36  98 N5        29.62S
EAGLE RIVER    CLOUDY    36  36 100 CALM      29.61S
LAND O LAKES   CLOUDY    37  37 100 CALM      29.62F
RHINELANDER    CLOUDY    37  37 100 CALM      29.61S
PHILLIPS       CLOUDY    34  34 100 CALM      29.63S FOG
ANTIGO         FOG       35  35 100 CALM      29.62F VSB 1/2
TOMAHAWK       CLOUDY    36  35  98 CALM      29.62F
MERRILL        CLOUDY    37  37 100 CALM        N/A
$$

WIZ013-073-221900-
NORTHEAST WISCONSIN

CITY           SKY/WX    TMP DP  RH WIND       PRES   REMARKS
IRON MOUNTAIN  CLOUDY    37  34  89 CALM      29.61S
MARINETTE      NOT AVBL
OCONTO         CLOUDY    37  37  99 W5        29.63F
$$

WIZ017-030-035>037-045-221900-
CENTRAL WISCONSIN

CITY           SKY/WX    TMP DP  RH WIND       PRES   REMARKS
MEDFORD        FOG       34  34  99 CALM      29.63F VSB 1/2
WAUSAU         CLOUDY    35  35 100 W5        29.62F FOG
MOSINEE        CLOUDY    36  36 100 W3        29.64F
MARSHFIELD     FOG       35  35 100 NW5       29.63F VSB 1/4
WISC RAPIDS    CLOUDY    36  36 100 NW5       29.65F
STEVENS POINT  CLOUDY    34  34 100 CALM      29.64F FOG
WAUPACA        CLOUDY    39  38  97 CALM      29.64F FOG
SHAWANO        CLOUDY    39  38  97 W3        29.64F FOG
CLINTONVILLE   DRIZZLE   37  36  93 W5        29.64F
WAUTOMA        CLOUDY    39  38  96 W3        29.65F FOG
$$

WIZ038-039-048-051-221900-
FOX VALLEY

CITY           SKY/WX    TMP DP  RH WIND       PRES   REMARKS
NWS GREEN BAY  FOG       39  39 100 CALM      29.63F VSB 1/4
APPLETON       FOG       37  37 100 VRB6      29.62F VSB 1/4
OSHKOSH        FOG       38  37  97 W6        29.64S VSB 3/4
FOND DU LAC    CLOUDY    40  37  89 SW3       29.63F
$$

WIZ022-050-052-221900-
EAST CENTRAL WISCONSIN

CITY           SKY/WX    TMP DP  RH WIND       PRES   REMARKS
EPHRAIM        FOG       38  38 100 CALM      29.62F VSB<1/4
WASHINGTON ISL FOG       34  34 100 N5        29.63F VSB<1/4
STURGEON BAY   FOG       39  39 100 SW3       29.63F VSB 1/4
MANITOWOC      CLOUDY    40  39  97 MISG      29.64F FOG
SHEBOYGAN      CLOUDY    42  39  89 W6        29.63F
$$

LMZ563-521-522-541>543-221900-
LAKESHORE

STATION/POSITION TIME  TEMP    WIND        PRES    VSBY  WAVE
                       AIR SEA DIR/SP/G                  HT/PER
                 (UTC) (F)     (DEG/KT/KT) (MB)    (MI)  (FT/S)
SHEBOYGAN LKSHOR 1800   38     150/  5/  5 1003.5F
KEWAUNEE LKSHORE 1748   39     290/  3/  6 1003.3F
NORTHPORT PIER   1740   35        CALM     1003.7F
SISTER BAY LKSHO 1735   39        CALM       N/A
MENOMINEE LKSHOR 1748           70/  1/  2 1002.7F
$$



USA.gov is the U.S. government's official web portal to all federal, state and local government web resources and services.